www.pogodaiklimat.ru

Погода и климат >> Архив погоды >> Индонезия >> Сиребон


ПОГОДА в Сиребоне

  • Прогноз погоды в Сиребоне
  • Монитор погоды в Сиребоне

АРХИВ ПОГОДЫ в Сиребоне

Время (UTC), дата Ветер
(напр.,м/с)
 
Видим.   Явления Облачность Т
(С)
Тd
(С)
f
(%)
Тe
(С)
Тes
(С)
Комфортность P
(гПа)
Po
(гПа)
Тmin
(С)
Tmax
(С)
R
(мм)
R24
(мм)
S
(см)
15 11.04 штиль 0 7000 м {гроза} 10/3 600 м
[Cu hum As op]
+26.4 +25.5 95 +39 +39 очень
душно
1010.3 1005.2
18 11.04 штиль 0 7000 м {гроза} 9/4 600 м
[Sc As op Ci fib]
+25.2 +23.8 92 +34 +34 очень
душно
1009.1 1004.1
21 11.04 штиль 0 7000 м 8/3 600 м
[Sc As trans Ci fib]
+24.7 +23.5 93 +33 +33 очень
душно
1008.2 1003.2
00 12.04 штиль 0 9000 м 5/1 600 м
[Sc Ci fib]
+24.8 +23.7 94 +34 +36 очень
душно
1010.2 1005.1 +24.0 20
03 12.04 З 2 10 км 4/1 600 м
[Cu hum Cs]
+30.9 +24.0 67 +43 +57 опасность
перегрева
1010.8 1005.7
06 12.04 ЮЗ 1 10 км 6/4 600 м
[Cu hum Cs]
+33.8 +24.8 59 +47 +59 опасность
перегрева
1008.4 1003.3
09 12.04 ЮВ 1 10 км 10/5 600 м
[Sc As op]
+32.0 +24.4 64 +44 +45 опасность
перегрева
1007.4 1002.4
12 12.04 штиль 0 10 км 9/4 600 м
[Sc As trans Ci fib]
+29.4 +25.7 81 +44 +44 опасность
перегрева
1009.8 1004.7 +34.2
15 12.04 штиль 0 8000 м 10/5 600 м
[Sc As op]
+27.8 +25.4 87 +41 +41 опасность
перегрева
1011.4 1006.4
18 12.04 ЮЗ 1 8000 м 10/4 600 м
[Sc As op]
+27.0 +24.6 87 +38 +38 очень
душно
1010.5 1005.5
21 12.04 штиль 0 8000 м 10/4 600 м
[Sc As op]
+26.5 +25.4 94 +39 +39 очень
душно
1010.0 1004.9
00 13.04 штиль 0 9000 м 6/3 600 м
[Sc As trans Ci fib]
+26.2 +24.7 91 +37 +38 очень
душно
1011.3 1006.2 +24.8
03 13.04 ЮЗ 2 10 км 6/1 600 м
[Sc Ci fib]
+31.0 +24.8 70 +44 +58 опасность
перегрева
1011.5 1006.5
06 13.04 ЮЗ 2 8000 м гроза без осадков 9/5
[Cb cap As op Ci fib]
+33.9 +24.9 59 +47 +53 опасность
перегрева
1008.8 1003.8
09 13.04 З 4 8000 м гроза, ливневой дождь 10/6 480 м
[Cb cap As op Ci sp]
+27.1 +22.8 77 +36 +36 очень
душно
1008.3 1003.3 0.0
12 13.04 ЮЗ 2 7000 м в посл. час гроза {дождь} 10/4 540 м
[Sc As trans Ci sp]
+26.4 +24.5 89 +37 +37 очень
душно
1010.8 1005.8 +34.4 0.0
15 13.04 штиль 0 7000 м 10/3 540 м
[Sc Ac As Ci sp]
+26.3 +23.7 86 +36 +36 очень
душно
1012.9 1007.8
18 13.04 З 1 7000 м в посл. час гроза {дождь} 10/4
[Cb cap As op]
+26.2 +24.6 91 +37 +37 очень
душно
1012.0 1006.9 0.0
21 13.04 штиль 0 7000 м в посл. час дождь 10/3 540 м
[Sc As op]
+26.0 +24.1 89 +36 +36 очень
душно
1010.1 1005.0 0.0
00 14.04 штиль 0 8000 м 10/3 600 м
[Sc As op]
+26.0 +25.2 95 +37 +38 очень
душно
1011.6 1006.6 +25.4 0.0
03 14.04 В 1 10 км 8/3 600 м
[Sc Ac trans Ci fib]
+30.0 +25.4 76 +44 +53 опасность
перегрева
1012.2 1007.1
06 14.04 СЗ 3 10 км 8/4 600 м
[Sc As trans Ci fib]
+34.2 +24.8 58 +47 +54 опасность
перегрева
1008.7 1003.6
09 14.04 ЮВ 1 8000 м гроза без осадков 10/5
[Cb cap As op]
+28.6 +25.4 83 +42 +42 опасность
перегрева
1007.9 1002.9 0.0
12 14.04 В 1 6000 м гроза, ливневой дождь 10/8
[Cb cap As op]
+27.3 +26.0 93 +41 +41 опасность
перегрева
1010.3 1005.3 +34.2 11
15 14.04 штиль 0 7000 м слаб. дождь {гроза} 10/6 540 м
[Sc As op]
+26.8 +26.0 95 +40 +40 очень
душно
1011.5 1006.4 1
18 14.04 штиль 0 7000 м {дождь} 10/4 600 м
[Sc As op]
+26.5 +26.0 97 +40 +40 очень
душно
1010.3 1005.3 0.0
21 14.04 штиль 0 7000 м 10/4 600 м
[Sc As op]
+26.1 +25.4 96 +38 +38 очень
душно
1009.0 1003.9
00 15.04 штиль 0 10 км 6/3 600 м
[Sc As trans Ci fib]
+25.7 +25.2 97 +37 +38 очень
душно
1010.6 1005.5 +25.3 12
03 15.04 З 1 10 км 9/1 600 м
[Cu hum Ac trans Cs]
+30.1 +26.5 81 +46 +56 опасность
перегрева
1011.7 1006.6
06 15.04 ЮВ 1 10 км 8/5 600 м
[Cu hum Ac trans Cs]
+32.5 +25.6 67 +47 +55 опасность
перегрева
1008.6 1003.5
09 15.04 В 2 8000 м гроза, ливневой дождь 10/5
[Cb cap As op]
+27.6 +24.6 84 +39 +40 очень
душно
1008.0 1002.9 5
12 15.04 З 2 8000 м гроза, ливневой дождь 10/5
[Cb cap As op]
+26.0 +24.9 94 +37 +37 очень
душно
1010.7 1005.6 +32.6 19
15 15.04 штиль 0 7000 м гроза, ливневой дождь 10/5
[Cb cap As op]
+24.2 +23.9 98 +33 +33 очень
душно
1011.1 1006.1 6
18 15.04 штиль 0 7000 м {гроза, дождь} 10/6 500 м
[Sc As op]
+24.5 +23.9 96 +33 +33 очень
душно
1010.4 1005.4 1
21 15.04 штиль 0 7000 м 6/3 600 м
[Sc As trans Ci fib]
+24.6 +24.1 97 +34 +34 очень
душно
1009.4 1004.3
00 16.04 штиль 0 7000 м мгла 6/3 600 м
[Sc As trans Ci fib]
+24.6 +23.8 95 +33 +35 очень
душно
1011.0 1006.0 +23.9 30
03 16.04 Ю 1 10 км 8/3 600 м
[Cu hum Ac trans Cs]
+29.7 +24.7 75 +42 +51 опасность
перегрева
1012.2 1007.1
06 16.04 ЮВ 3 7000 м гроза, ливневой дождь 10/5
[Cb cap As op]
+28.9 +24.4 77 +41 +42 опасность
перегрева
1009.4 1004.4 0.0
09 16.04 З 2 8000 м слаб. дождь {гроза} 10/5
[Cb cap As op]
+27.0 +24.0 84 +37 +38 очень
душно
1009.0 1004.0 17
12 16.04 штиль 0 8000 м {дождь} 10/5 570 м
[Sc As op]
+25.6 +24.8 95 +36 +36 очень
душно
1010.0 1005.0 +32.8 0.0
15 16.04 штиль 0 8000 м 10/5 570 м
[Sc As op]
+25.2 +24.7 97 +35 +35 очень
душно
1011.5 1006.4
18 16.04 штиль 0 8000 м 8/4 600 м
[Sc As op Ci fib]
+24.6 +24.1 97 +34 +34 очень
душно
1010.8 1005.7
21 16.04 штиль 0 8000 м 8/4 600 м
[Sc As op Ci fib]
+24.0 +23.3 96 +32 +32 очень
душно
1010.1 1005.0
00 17.04 Ю 1 10 км 5/1 600 м
[Sc As trans Ci fib]
+24.1 +23.3 95 +32 +34 очень
душно
1011.3 1006.3 +23.3 17
03 17.04 штиль 0 10 км 5/1 600 м
[Cu hum As trans Ci fib]
+31.2 +24.1 66 +43 +58 опасность
перегрева
1012.1 1007.0
06 17.04 З 2 10 км 8/3 600 м
[Cu med, cong As trans Ci fib]
+33.8 +20.6 46 +41 +49 опасность
перегрева
1009.5 1004.4
09 17.04 В 2 9000 м 10/5 570 м
[Cb cap Ac As Ci sp]
+32.0 +25.3 68 +46 +47 опасность
перегрева
1007.9 1002.9
12 17.04 штиль 0 8000 м 8/3 600 м
[Sc As trans Ci fib]
+29.3 +25.1 78 +42 +42 опасность
перегрева
1009.7 1004.6 +34.2
15 17.04 штиль 0 8000 м 8/3 600 м
[Sc As trans Ci fib]
+27.8 +25.9 89 +41 +41 опасность
перегрева
1011.1 1006.0
18 17.04 штиль 0 7000 м 8/3 600 м
[Sc As trans Ci fib]
+26.3 +25.2 94 +38 +38 очень
душно
1010.1 1005.0
21 17.04 штиль 0 7000 м 8/3 600 м
[Sc As trans Ci fib]
+25.5 +24.7 95 +36 +36 очень
душно
1009.1 1004.1
00 18.04 штиль 0 10 км 9/3 600 м
[Sc Ac As Ci fib]
+25.5 +24.3 93 +35 +36 очень
душно
1010.3 1005.2 +23.7
03 18.04 штиль 0 10 км 9/4 600 м
[Sc As trans Ci fib]
+31.0 +24.5 68 +43 +51 опасность
перегрева
1011.5 1006.5
06 18.04 Ю 2 10 км 9/4 600 м
[Cu hum As trans Ci fib]
+33.4 +26.0 65 +49 +55 опасность
перегрева
1008.6 1003.6
09 18.04 В 2 9000 м 8/3 600 м
[Sc As trans Ci fib]
+31.1 +25.6 73 +46 +48 опасность
перегрева
1007.1 1002.1

 

Местоположение метеостанции Сиребон (Индонезия): широта -6.75 долгота 108.26 высота над уровнем моря 50 м.

В архиве по умолчанию представлена погода в Сиребоне за последнюю неделю. Архивные данные за месяц целиком и за предыдущие месяцы, начиная с января 2011 года, Вы можете получить, выбрав интересующий диапазон дат из раскрывающегося списка и нажав кнопку "Ввод!".


*Определитесь, кто Вы:
робот инопланетянин человек

Внимание! Время в таблицах - всемирное. Для получения местного времени необходимо прибавить поправку, которая равна 7 ч.

Смотрите также архив погоды в соседних городах и на ближайших метеорологических станциях:

Погода в Бандунге (Индонезия) (77 км)
Погода в Тегале (Индонезия) (99 км)
Погода в Чилачапе (Индонезия) (137 км)
Погода в Цитеко (Индонезия) (147 км)
Погода в Джакарта порту (Индонезия) (170 км)
Погода в Джакарте (Индонезия) (170 км)
Погода в Чуруге (Индонезия) (187 км)
Погода в Аэропорту Сукарно-Хатта (Индонезия) (191 км)
Погода в Аэропорту Ахмад Яни (Индонезия) (236 км)
Погода в Семаранге (Индонезия) (239 км)

Пояснения к столбцам:

Ветер - указаны скорость ветра в м/с - средняя за 10 мин, порывы в срок и между сроками (в фигурных скобках) и направление, откуда дует ветер: С - северный, СВ - северо-восточный, В - восточный, ЮВ - юго-восточный, Ю - южный, ЮЗ - юго-западный, З - западный, СЗ - северо-западный.
Видимость - горизонтальная дальность видимости в метрах или километрах. При видимости от 1 до 10 км при отсутствии осадков обычно наблюдается дымка, при ухудшении видимости до 1 км и менее - туман. В сухую погоду видимость может ухудшаться дымом, пылью или мглою.
Явления - указаны атмосферные явления, наблюдавшиеся в срок или в последний час перед сроком; фигурными скобками обозначены явления, наблюдавшиеся между сроками (за 1-3 часа до срока); квадратными скобками обозначены град или гололедные отложения с указанием их диаметра в мм.
Облачность - указаны через наклонную черту общая и нижняя облачность в баллах и высота нижней границы облаков в метрах; квадратными скобками обозначены формы облаков: Ci - перистые, Cs - перисто-слоистые, Cc - перисто-кучевые, Ac - высококучевые, As - высокослоистые, Sc - слоисто-кучевые, Ns - слоисто-дождевые, Cu - кучевые, Cb - кучево-дождевые. Подробнее классификацию облаков см. в Атласе облаков (PDF).
T - Температура воздуха - температура, измеренная на высоте 2 м над землей.
Td - Температура точки росы - температура, при понижении до которой содержащийся в воздухе водяной пар достигнет насыщения.
f - Относительная влажность воздуха - влажноcть воздуха, измеренная на высоте 2 м над землей.
Te - Эффективная температура - температура, которую ощущает одетый по сезону человек в тени. Характеристика душности погоды. При расчете учитывается влияние влажности воздуха и скорости ветра на теплоощущения человека.
Tes - Эффективная температура на солнце - температура, которую ощущает человек, с поправкой на солнечный нагрев. Характеристика знойности погоды. Зависит от высоты солнца над горизонтом, облачности и скорости ветра. Ночью, в пасмурную погоду, а также при ветре 12 м/с и более поправка равна нулю.
P - Атмосферное давление - приведенное к уровню моря атмосферное давление.
Po - Атмосферное давление - измеренное на уровне метеостанции атмосферное давление.
Tmin - Минимальная температура - минимум температуры воздуха на высоте 2 м над землей.
Tmax - Максимальная температура - максимум температуры воздуха на высоте 2 м над землей.
R - Количество осадков - Количество выпавших осадков за период времени, мм. При наведении курсора мыши на число - период времени, за который выпало указанное количество осадков.
R24 - Количество осадков - Количество выпавших осадков за 24 часа, мм.
S - Снежный покров - Высота снежного покрова, см. При наведении курсора мыши на число - состояние снежного покрова и степень покрытия местности в баллах.